| time (UTC) | temp F | wind direction | speed MPH | gust MPH | rain 1hr in | rain 24hr in | rain mn in | humidity % | barometer mb |
| 20260902004600 | 73 | 0 | 0.0 | 1.0 | 0.00 | 0.06 | 0.06 | 89 | 1014.5 |
| 20260902004504 | 74 | 61 | 0.0 | 0.0 | 0.00 | 0.06 | 0.06 | 90 | 1012.6 |
| 20260902004004 | 74 | 67 | 0.0 | 0.0 | 0.00 | 0.06 | 0.06 | 89 | 1012.4 |
| 20260902003504 | 74 | 90 | 0.0 | 1.0 | 0.00 | 0.06 | 0.06 | 90 | 1012.3 |
| 20260902003101 | 74 | 0 | 0.0 | 1.0 | 0.00 | 0.06 | 0.06 | 89 | 1014.1 |
| 20260902003004 | 74 | 87 | 0.0 | 1.0 | 0.00 | 0.06 | 0.06 | 90 | 1012.2 |
| 20260902002504 | 74 | 86 | 0.0 | 0.0 | 0.00 | 0.06 | 0.06 | 89 | 1012.1 |
| 20260902002003 | 74 | 57 | 0.0 | 1.0 | 0.00 | 0.06 | 0.06 | 89 | 1012.0 |
| 20260902001559 | 74 | 0 | 0.0 | 1.0 | 0.00 | 0.06 | 0.06 | 88 | 1013.8 |
| 20260902001503 | 74 | 278 | 0.0 | 1.0 | 0.00 | 0.06 | 0.06 | 88 | 1011.9 |
| 20260902001003 | 75 | 97 | 1.0 | 1.0 | 0.00 | 0.06 | 0.06 | 88 | 1011.8 |
| 20260902000503 | 75 | 81 | 0.0 | 1.0 | 0.00 | 0.06 | 0.06 | 88 | 1011.8 |
| 20260902000056 | 74 | 0 | 0.0 | 1.0 | 0.00 | 0.06 | 0.06 | 88 | 1013.7 |
| 20260902000004 | 75 | 80 | 0.0 | 1.0 | 0.00 | 0.06 | 0.06 | 88 | 1011.8 |
| 20260901235004 | 76 | 8 | 0.0 | 1.0 | 0.00 | 0.06 | 0.06 | 86 | 1011.8 |
| 20260901234559 | 76 | 0 | 0.0 | 1.0 | 0.00 | 0.06 | 0.06 | 85 | 1013.7 |
| 20260901234504 | 76 | 54 | 0.0 | 1.0 | 0.00 | 0.06 | 0.06 | 85 | 1011.8 |
| 20260901234004 | 76 | 288 | 0.0 | 1.0 | 0.00 | 0.06 | 0.06 | 85 | 1011.9 |
| 20260901233103 | 76 | 0 | 0.0 | 1.0 | 0.00 | 0.06 | 0.06 | 84 | 1013.7 |
| 20260901233004 | 77 | 87 | 0.0 | 1.0 | 0.00 | 0.06 | 0.06 | 85 | 1011.9 |
| 20260901232503 | 77 | 52 | 0.0 | 1.0 | 0.00 | 0.06 | 0.06 | 85 | 1011.9 |
| 20260901231607 | 77 | 0 | 0.0 | 2.0 | 0.00 | 0.06 | 0.06 | 83 | 1013.8 |
| 20260901231503 | 78 | 20 | 0.0 | 1.0 | 0.00 | 0.06 | 0.06 | 83 | 1012.0 |
| 20260901231004 | 78 | 12 | 1.0 | 2.0 | 0.00 | 0.06 | 0.06 | 82 | 1012.0 |
| 20260901230504 | 78 | 28 | 0.0 | 1.0 | 0.00 | 0.06 | 0.06 | 83 | 1012.1 |
| 20260901230054 | 78 | 0 | 0.0 | 1.0 | 0.00 | 0.06 | 0.06 | 82 | 1014.0 |
| 20260901230004 | 78 | 109 | 0.0 | 1.0 | 0.00 | 0.06 | 0.06 | 83 | 1012.1 |
| 20260901225004 | 78 | 287 | 0.0 | 1.0 | 0.00 | 0.06 | 0.06 | 82 | 1012.1 |
| 20260901224555 | 78 | 0 | 0.0 | 2.0 | 0.00 | 0.07 | 0.06 | 81 | 1014.0 |
| 20260901224003 | 79 | 17 | 0.0 | 1.0 | 0.00 | 0.06 | 0.06 | 80 | 1012.1 |
| 20260901223503 | 79 | 35 | 1.0 | 2.0 | 0.00 | 0.06 | 0.06 | 80 | 1012.1 |
| 20260901223055 | 79 | 0 | 0.0 | 2.0 | 0.00 | 0.07 | 0.06 | 79 | 1014.0 |
| 20260901223005 | 79 | 5 | 1.0 | 2.0 | 0.00 | 0.06 | 0.06 | 79 | 1012.1 |
| 20260901222004 | 80 | 50 | 0.0 | 2.0 | 0.00 | 0.06 | 0.06 | 80 | 1011.9 |
| 20260901221556 | 80 | 28 | 0.0 | 2.0 | 0.00 | 0.07 | 0.06 | 79 | 1013.8 |
| 20260901221503 | 80 | 0 | 0.0 | 2.0 | 0.00 | 0.06 | 0.06 | 79 | 1012.0 |
| 20260901221003 | 81 | 333 | 1.0 | 2.0 | 0.00 | 0.07 | 0.06 | 77 | 1011.9 |
| 20260901220503 | 81 | 335 | 1.0 | 2.0 | 0.00 | 0.07 | 0.06 | 76 | 1011.9 |
| 20260901220118 | 82 | 0 | 0.0 | 2.0 | 0.00 | 0.07 | 0.06 | 75 | 1013.8 |
| 20260901220004 | 82 | 1 | 1.0 | 2.0 | 0.00 | 0.07 | 0.06 | 75 | 1011.8 |
| 20260901215503 | 83 | 17 | 1.0 | 2.0 | 0.00 | 0.07 | 0.06 | 73 | 1011.8 |
| 20260901215003 | 84 | 62 | 1.0 | 2.0 | 0.00 | 0.07 | 0.06 | 73 | 1011.9 |
| 20260901214556 | 83 | 0 | 1.0 | 3.0 | 0.00 | 0.07 | 0.06 | 74 | 1013.7 |
| 20260901214503 | 83 | 78 | 1.0 | 3.0 | 0.00 | 0.07 | 0.06 | 76 | 1011.8 |
| 20260901214004 | 82 | 322 | 1.0 | 2.0 | 0.00 | 0.07 | 0.06 | 77 | 1011.9 |
| 20260901213504 | 82 | 317 | 1.0 | 2.0 | 0.00 | 0.07 | 0.06 | 76 | 1011.7 |
| 20260901213058 | 82 | 13 | 0.0 | 2.0 | 0.00 | 0.07 | 0.06 | 76 | 1013.6 |
| 20260901213004 | 83 | 339 | 1.0 | 2.0 | 0.00 | 0.07 | 0.06 | 76 | 1011.7 |
| 20260901212503 | 81 | 43 | 1.0 | 2.0 | 0.00 | 0.07 | 0.06 | 77 | 1011.7 |
| 20260901212003 | 83 | 353 | 1.0 | 2.0 | 0.00 | 0.07 | 0.06 | 74 | 1011.7 |
| 20260901211603 | 84 | 344 | 0.0 | 3.0 | 0.00 | 0.07 | 0.06 | 72 | 1013.7 |
| 20260901211004 | 86 | 335 | 1.0 | 2.0 | 0.00 | 0.07 | 0.06 | 70 | 1011.7 |
| 20260901210504 | 84 | 70 | 1.0 | 2.0 | 0.00 | 0.07 | 0.06 | 74 | 1011.7 |
| 20260901210052 | 83 | 0 | 1.0 | 3.0 | 0.00 | 0.07 | 0.06 | 73 | 1013.6 |
| 20260901210003 | 84 | 330 | 1.0 | 2.0 | 0.00 | 0.07 | 0.06 | 73 | 1011.7 |
| 20260901205503 | 86 | 310 | 1.0 | 2.0 | 0.00 | 0.07 | 0.06 | 70 | 1011.7 |
| 20260901205004 | 84 | 19 | 2.0 | 3.0 | 0.00 | 0.07 | 0.06 | 72 | 1011.7 |
| 20260901204556 | 86 | 331 | 0.0 | 2.0 | 0.00 | 0.14 | 0.06 | 68 | 1013.5 |
| 20260901204504 | 86 | 103 | 1.0 | 2.0 | 0.00 | 0.07 | 0.06 | 69 | 1011.6 |
| 20260901204004 | 84 | 63 | 1.0 | 2.0 | 0.00 | 0.08 | 0.06 | 74 | 1011.8 |
| 20260901203504 | 83 | 18 | 1.0 | 2.0 | 0.00 | 0.08 | 0.06 | 74 | 1012.0 |
| 20260901203108 | 83 | 107 | 1.0 | 2.0 | 0.00 | 0.14 | 0.06 | 72 | 1013.9 |
| 20260901203004 | 84 | 73 | 1.0 | 2.0 | 0.00 | 0.08 | 0.06 | 74 | 1012.1 |
| 20260901202504 | 85 | 35 | 1.0 | 2.0 | 0.00 | 0.09 | 0.06 | 71 | 1011.9 |
| 20260901202004 | 87 | 318 | 0.0 | 2.0 | 0.00 | 0.10 | 0.06 | 68 | 1011.8 |
| 20260901201557 | 87 | 46 | 0.0 | 4.0 | 0.00 | 0.14 | 0.06 | 67 | 1013.7 |
| 20260901201504 | 88 | 323 | 1.0 | 2.0 | 0.00 | 0.10 | 0.06 | 67 | 1011.8 |
| 20260901200052 | 87 | 283 | 1.0 | 3.0 | 0.00 | 0.14 | 0.06 | 68 | 1013.8 |
| 20260901200003 | 87 | 77 | 1.0 | 3.0 | 0.00 | 0.14 | 0.06 | 69 | 1011.8 |
| 20260901195004 | 84 | 319 | 1.0 | 3.0 | 0.00 | 0.14 | 0.06 | 72 | 1011.7 |
| 20260901194604 | 83 | 331 | 1.0 | 3.0 | 0.00 | 0.33 | 0.06 | 72 | 1013.7 |
| 20260901194504 | 83 | 313 | 1.0 | 3.0 | 0.00 | 0.15 | 0.06 | 72 | 1011.7 |
| 20260901194003 | 85 | 297 | 1.0 | 3.0 | 0.00 | 0.16 | 0.06 | 68 | 1011.7 |
| 20260901193503 | 87 | 313 | 1.0 | 3.0 | 0.00 | 0.17 | 0.06 | 70 | 1011.7 |
| 20260901193105 | 85 | 229 | 1.0 | 3.0 | 0.00 | 0.33 | 0.06 | 69 | 1013.7 |
| 20260901193004 | 86 | 284 | 1.0 | 3.0 | 0.00 | 0.18 | 0.06 | 68 | 1011.8 |
| 20260901192503 | 88 | 64 | 1.0 | 3.0 | 0.00 | 0.18 | 0.06 | 65 | 1011.9 |
| 20260901191554 | 87 | 344 | 0.0 | 3.0 | 0.00 | 0.33 | 0.06 | 67 | 1013.6 |
| 20260901191004 | 87 | 38 | 1.0 | 3.0 | 0.00 | 0.24 | 0.06 | 67 | 1011.8 |
| 20260901190052 | 83 | 98 | 0.0 | 3.0 | 0.00 | 0.33 | 0.06 | 71 | 1013.8 |
| 20260901190004 | 83 | 46 | 1.0 | 2.0 | 0.00 | 0.33 | 0.06 | 73 | 1012.0 |
| 20260901185003 | 84 | 30 | 1.0 | 2.0 | 0.00 | 0.34 | 0.06 | 71 | 1012.1 |
| 20260901184601 | 83 | 0 | 0.0 | 3.0 | 0.00 | 0.52 | 0.06 | 71 | 1013.9 |
| 20260901184503 | 84 | 51 | 1.0 | 2.0 | 0.00 | 0.34 | 0.06 | 72 | 1011.9 |
| 20260901184004 | 82 | 71 | 1.0 | 2.0 | 0.00 | 0.35 | 0.06 | 76 | 1012.0 |
| 20260901183504 | 82 | 68 | 1.0 | 3.0 | 0.00 | 0.37 | 0.06 | 78 | 1011.9 |
| 20260901183056 | 80 | 63 | 1.0 | 5.0 | 0.00 | 0.52 | 0.06 | 78 | 1013.7 |
| 20260901183004 | 81 | 323 | 2.0 | 5.0 | 0.00 | 0.41 | 0.06 | 80 | 1011.9 |
| 20260901182504 | 82 | 324 | 1.0 | 3.0 | 0.00 | 0.45 | 0.06 | 79 | 1011.8 |
| 20260901182004 | 82 | 3 | 2.0 | 3.0 | 0.00 | 0.46 | 0.06 | 76 | 1011.8 |
| 20260901181555 | 81 | 1 | 1.0 | 5.0 | 0.00 | 0.52 | 0.06 | 79 | 1013.6 |
| 20260901181003 | 83 | 10 | 2.0 | 5.0 | 0.00 | 0.52 | 0.06 | 75 | 1011.7 |
| 20260901180503 | 83 | 34 | 2.0 | 3.0 | 0.00 | 0.52 | 0.06 | 76 | 1011.7 |
| 20260901180105 | 81 | 1 | 1.0 | 4.0 | 0.00 | 0.52 | 0.06 | 78 | 1013.6 |
| 20260901175503 | 82 | 60 | 1.0 | 3.0 | 0.00 | 0.54 | 0.06 | 78 | 1011.7 |
| 20260901174556 | 81 | 269 | 1.0 | 4.0 | 0.00 | 0.57 | 0.06 | 79 | 1013.5 |
| 20260901174504 | 81 | 37 | 1.0 | 3.0 | 0.00 | 0.55 | 0.06 | 78 | 1011.7 |
| 20260901174004 | 81 | 41 | 1.0 | 2.0 | 0.00 | 0.55 | 0.06 | 79 | 1011.6 |
| 20260901173503 | 81 | 7 | 1.0 | 3.0 | 0.00 | 0.55 | 0.06 | 78 | 1011.5 |
| 20260901173059 | 81 | 1 | 1.0 | 4.0 | 0.00 | 0.57 | 0.06 | 78 | 1013.2 |
| 20260901173003 | 82 | 31 | 1.0 | 3.0 | 0.00 | 0.55 | 0.06 | 79 | 1011.5 |
| 20260901172004 | 80 | 3 | 2.0 | 6.0 | 0.00 | 0.55 | 0.06 | 80 | 1011.4 |
| 20260901171556 | 79 | 0 | 1.0 | 4.0 | 0.00 | 0.57 | 0.06 | 82 | 1013.1 |
| 20260901171504 | 79 | 314 | 1.0 | 3.0 | 0.00 | 0.55 | 0.06 | 81 | 1011.4 |
| 20260901171003 | 81 | 312 | 2.0 | 3.0 | 0.00 | 0.55 | 0.06 | 80 | 1011.3 |
| 20260901170504 | 82 | 317 | 1.0 | 3.0 | 0.00 | 0.56 | 0.06 | 80 | 1011.3 |
| 20260901170121 | 81 | 331 | 1.0 | 3.0 | 0.00 | 0.57 | 0.06 | 80 | 1012.9 |
| 20260901170004 | 81 | 16 | 1.0 | 3.0 | 0.00 | 0.57 | 0.06 | 81 | 1011.2 |
| 20260901165503 | 81 | 353 | 1.0 | 2.0 | 0.00 | 0.58 | 0.06 | 80 | 1011.1 |
| 20260901165004 | 82 | 350 | 1.0 | 3.0 | 0.00 | 0.58 | 0.06 | 78 | 1011.1 |
| 20260901164607 | 82 | 324 | 1.0 | 4.0 | 0.00 | 0.61 | 0.06 | 79 | 1012.9 |
| 20260901164503 | 82 | 9 | 1.0 | 3.0 | 0.00 | 0.58 | 0.06 | 78 | 1011.2 |
| 20260901164003 | 83 | 201 | 1.0 | 3.0 | 0.00 | 0.59 | 0.06 | 76 | 1011.2 |
| 20260901163504 | 83 | 159 | 1.0 | 3.0 | 0.00 | 0.59 | 0.06 | 75 | 1011.2 |
| 20260901163057 | 82 | 0 | 1.0 | 4.0 | 0.00 | 0.61 | 0.06 | 77 | 1012.9 |
| 20260901163004 | 83 | 55 | 1.0 | 3.0 | 0.00 | 0.60 | 0.06 | 78 | 1011.1 |
| 20260901162504 | 83 | 28 | 1.0 | 3.0 | 0.00 | 0.60 | 0.06 | 75 | 1011.1 |
| 20260901162003 | 82 | 71 | 2.0 | 5.0 | 0.00 | 0.60 | 0.06 | 78 | 1011.1 |
| 20260901161559 | 82 | 245 | 1.0 | 3.0 | 0.00 | 0.61 | 0.06 | 76 | 1012.8 |
| 20260901161004 | 82 | 18 | 1.0 | 3.0 | 0.00 | 0.61 | 0.06 | 78 | 1010.9 |
| 20260901160504 | 82 | 340 | 1.0 | 6.0 | 0.00 | 0.61 | 0.06 | 78 | 1010.9 |
| 20260901160057 | 81 | 135 | 1.0 | 5.0 | 0.00 | 0.61 | 0.06 | 80 | 1012.6 |
| 20260901160004 | 82 | 333 | 1.0 | 3.0 | 0.00 | 0.61 | 0.06 | 79 | 1010.8 |
| 20260901155503 | 81 | 336 | 1.0 | 5.0 | 0.00 | 0.61 | 0.06 | 80 | 1010.8 |
| 20260901155003 | 81 | 251 | 2.0 | 3.0 | 0.00 | 0.61 | 0.06 | 78 | 1010.8 |
| 20260901154612 | 81 | 152 | 1.0 | 6.0 | 0.00 | 0.66 | 0.06 | 79 | 1012.7 |
| 20260901153504 | 80 | 206 | 2.0 | 5.0 | 0.00 | 0.64 | 0.06 | 82 | 1011.1 |
| 20260901153108 | 79 | 253 | 1.0 | 5.0 | 0.00 | 0.66 | 0.06 | 82 | 1012.9 |
| 20260901153004 | 80 | 310 | 2.0 | 5.0 | 0.00 | 0.64 | 0.06 | 82 | 1011.1 |
| 20260901152004 | 79 | 177 | 2.0 | 5.0 | 0.00 | 0.65 | 0.06 | 83 | 1011.2 |
| 20260901151600 | 79 | 308 | 1.0 | 4.0 | 0.00 | 0.66 | 0.06 | 83 | 1012.9 |
| 20260901151504 | 79 | 347 | 1.0 | 3.0 | 0.00 | 0.65 | 0.06 | 85 | 1011.2 |
| 20260901151004 | 78 | 241 | 1.0 | 3.0 | 0.00 | 0.66 | 0.06 | 86 | 1011.2 |
| 20260901150503 | 78 | 248 | 2.0 | 3.0 | 0.00 | 0.66 | 0.06 | 86 | 1011.3 |
| 20260901150109 | 77 | 192 | 1.0 | 5.0 | 0.00 | 0.66 | 0.06 | 88 | 1012.8 |
| 20260901150004 | 78 | 276 | 2.0 | 3.0 | 0.00 | 0.66 | 0.06 | 89 | 1011.2 |
| 20260901145504 | 77 | 207 | 2.0 | 3.0 | 0.00 | 0.66 | 0.06 | 90 | 1011.2 |
| 20260901145004 | 76 | 197 | 2.0 | 5.0 | 0.00 | 0.66 | 0.06 | 92 | 1011.3 |
| 20260901144601 | 76 | 161 | 1.0 | 3.0 | 0.00 | 0.73 | 0.06 | 93 | 1012.9 |
| 20260901144504 | 76 | 183 | 2.0 | 3.0 | 0.00 | 0.67 | 0.06 | 94 | 1011.2 |
| 20260901143504 | 75 | 302 | 1.0 | 3.0 | 0.00 | 0.68 | 0.06 | 95 | 1011.2 |
| 20260901143100 | 75 | 163 | 1.0 | 4.0 | 0.00 | 0.73 | 0.06 | 95 | 1012.8 |
| 20260901143003 | 75 | 205 | 1.0 | 3.0 | 0.00 | 0.68 | 0.06 | 96 | 1011.1 |
| 20260901141604 | 74 | 234 | 0.0 | 4.0 | 0.00 | 0.73 | 0.06 | 97 | 1012.7 |
| 20260901141004 | 74 | 161 | 1.0 | 3.0 | 0.00 | 0.72 | 0.06 | 97 | 1011.0 |
| 20260901140504 | 73 | 173 | 2.0 | 3.0 | 0.00 | 0.72 | 0.06 | 97 | 1011.0 |
| 20260901140106 | 73 | 152 | 1.0 | 3.0 | 0.00 | 0.73 | 0.06 | 97 | 1012.7 |
| 20260901140004 | 73 | 159 | 2.0 | 3.0 | 0.00 | 0.74 | 0.06 | 97 | 1011.1 |
| 20260901135004 | 73 | 163 | 1.0 | 3.0 | 0.00 | 0.75 | 0.06 | 97 | 1011.1 |
| 20260901134605 | 72 | 135 | 1.0 | 3.0 | 0.00 | 0.82 | 0.06 | 97 | 1012.9 |
| 20260901134503 | 72 | 141 | 1.0 | 2.0 | 0.00 | 0.76 | 0.06 | 97 | 1011.1 |
| 20260901134004 | 72 | 178 | 1.0 | 3.0 | 0.00 | 0.76 | 0.06 | 97 | 1011.1 |
| 20260901133506 | 72 | 197 | 1.0 | 3.0 | 0.00 | 0.77 | 0.06 | 97 | 1011.0 |
| 20260901133112 | 72 | 117 | 1.0 | 3.0 | 0.00 | 0.82 | 0.06 | 96 | 1012.8 |
| 20260901133003 | 72 | 147 | 1.0 | 2.0 | 0.00 | 0.78 | 0.06 | 97 | 1011.1 |
| 20260901132503 | 72 | 244 | 1.0 | 3.0 | 0.00 | 0.78 | 0.06 | 97 | 1011.0 |
| 20260901131608 | 71 | 245 | 1.0 | 2.0 | 0.00 | 0.82 | 0.06 | 96 | 1012.9 |
| 20260901131504 | 72 | 202 | 1.0 | 2.0 | 0.00 | 0.79 | 0.06 | 97 | 1011.0 |
| 20260901131003 | 71 | 191 | 1.0 | 2.0 | 0.00 | 0.79 | 0.06 | 97 | 1011.1 |
| 20260901130503 | 71 | 199 | 1.0 | 2.0 | 0.00 | 0.81 | 0.06 | 97 | 1011.3 |
| 20260901130106 | 71 | 223 | 1.0 | 2.0 | 0.00 | 0.82 | 0.06 | 96 | 1013.0 |
| 20260901130004 | 71 | 164 | 1.0 | 2.0 | 0.00 | 0.82 | 0.06 | 97 | 1011.2 |
| 20260901125503 | 71 | 173 | 1.0 | 2.0 | 0.00 | 0.84 | 0.06 | 97 | 1011.3 |
| 20260901124609 | 70 | 0 | 0.0 | 1.0 | 0.00 | 0.85 | 0.06 | 96 | 1013.1 |
| 20260901124503 | 71 | 85 | 0.0 | 1.0 | 0.00 | 0.84 | 0.06 | 97 | 1011.3 |
| 20260901124003 | 71 | 162 | 1.0 | 1.0 | 0.00 | 0.84 | 0.06 | 97 | 1011.3 |
| 20260901123504 | 71 | 278 | 1.0 | 1.0 | 0.00 | 0.84 | 0.06 | 97 | 1011.3 |
| 20260901123117 | 70 | 46 | 0.0 | 1.0 | 0.00 | 0.85 | 0.06 | 96 | 1013.1 |
| 20260901123004 | 71 | 135 | 0.0 | 1.0 | 0.00 | 0.85 | 0.06 | 97 | 1011.3 |
| 20260901122504 | 71 | 220 | 1.0 | 1.0 | 0.00 | 0.85 | 0.06 | 97 | 1011.2 |
| 20260901121607 | 70 | 223 | 0.0 | 1.0 | 0.00 | 0.85 | 0.06 | 96 | 1012.9 |
| 20260901121504 | 70 | 310 | 0.0 | 1.0 | 0.00 | 0.85 | 0.06 | 97 | 1011.2 |
| 20260901121004 | 70 | 45 | 0.0 | 1.0 | 0.00 | 0.85 | 0.06 | 97 | 1011.2 |
| 20260901120121 | 69 | 213 | 1.0 | 2.0 | 0.00 | 0.85 | 0.06 | 96 | 1012.8 |
| 20260901120004 | 70 | 173 | 1.0 | 2.0 | 0.00 | 0.85 | 0.06 | 97 | 1011.1 |
| 20260901115503 | 70 | 133 | 0.0 | 1.0 | 0.00 | 0.85 | 0.06 | 97 | 1011.2 |
| 20260901115004 | 70 | 96 | 0.0 | 1.0 | 0.00 | 0.85 | 0.06 | 97 | 1011.1 |
| 20260901114606 | 69 | 0 | 0.0 | 1.0 | 0.00 | 0.85 | 0.06 | 96 | 1013.0 |
| 20260901114504 | 69 | 80 | 0.0 | 1.0 | 0.00 | 0.85 | 0.06 | 97 | 1011.2 |
| 20260901114004 | 69 | 118 | 0.0 | 1.0 | 0.00 | 0.85 | 0.06 | 97 | 1011.2 |
| 20260901113503 | 69 | 264 | 0.0 | 1.0 | 0.00 | 0.85 | 0.06 | 97 | 1011.1 |
| 20260901113118 | 69 | 0 | 0.0 | 2.0 | 0.00 | 0.85 | 0.06 | 96 | 1012.9 |
| 20260901113003 | 69 | 95 | 0.0 | 2.0 | 0.00 | 0.85 | 0.06 | 97 | 1011.1 |
| 20260901112003 | 69 | 174 | 1.0 | 1.0 | 0.00 | 0.85 | 0.06 | 97 | 1010.9 |
| 20260901111602 | 69 | 0 | 0.0 | 2.0 | 0.00 | 0.85 | 0.06 | 96 | 1012.6 |
| 20260901111503 | 69 | 116 | 1.0 | 1.0 | 0.00 | 0.85 | 0.06 | 97 | 1010.9 |
| 20260901111004 | 69 | 156 | 1.0 | 2.0 | 0.00 | 0.85 | 0.06 | 97 | 1010.9 |
| 20260901110504 | 69 | 42 | 0.0 | 2.0 | 0.00 | 0.85 | 0.06 | 97 | 1010.9 |
| 20260901110004 | 69 | 12 | 0.0 | 1.0 | 0.00 | 0.85 | 0.06 | 97 | 1010.8 |
| 20260901105004 | 69 | 58 | 0.0 | 1.0 | 0.00 | 0.85 | 0.06 | 97 | 1010.8 |
| 20260901104555 | 69 | 0 | 0.0 | 3.0 | 0.00 | 0.85 | 0.06 | 96 | 1012.3 |
| 20260901104503 | 69 | 75 | 0.0 | 2.0 | 0.00 | 0.85 | 0.06 | 97 | 1010.7 |
| 20260901104003 | 69 | 284 | 1.0 | 2.0 | 0.00 | 0.85 | 0.06 | 97 | 1010.8 |
| 20260901103503 | 69 | 203 | 1.0 | 2.0 | 0.00 | 0.85 | 0.06 | 97 | 1010.6 |
| 20260901103054 | 69 | 0 | 0.0 | 2.0 | 0.00 | 0.85 | 0.06 | 96 | 1012.2 |
| 20260901103003 | 69 | 189 | 1.0 | 2.0 | 0.00 | 0.85 | 0.06 | 97 | 1010.7 |
| 20260901102503 | 69 | 80 | 0.0 | 1.0 | 0.00 | 0.85 | 0.06 | 97 | 1010.7 |
| 20260901102003 | 69 | 48 | 0.0 | 1.0 | 0.00 | 0.85 | 0.06 | 97 | 1010.7 |
| 20260901101600 | 69 | 0 | 0.0 | 2.0 | 0.00 | 0.85 | 0.06 | 96 | 1012.2 |
| 20260901101504 | 69 | 49 | 1.0 | 2.0 | 0.00 | 0.85 | 0.06 | 97 | 1010.6 |
| 20260901101004 | 69 | 55 | 1.0 | 1.0 | 0.00 | 0.85 | 0.06 | 96 | 1010.7 |
| 20260901100504 | 69 | 19 | 1.0 | 2.0 | 0.00 | 0.85 | 0.06 | 96 | 1010.8 |
| 20260901100105 | 69 | 105 | 0.0 | 1.0 | 0.00 | 0.85 | 0.06 | 96 | 1012.3 |
| 20260901100003 | 69 | 85 | 0.0 | 1.0 | 0.00 | 0.85 | 0.06 | 96 | 1010.8 |
| 20260901095503 | 69 | 30 | 0.0 | 1.0 | 0.00 | 0.86 | 0.06 | 97 | 1010.7 |
| 20260901095003 | 69 | 112 | 0.0 | 1.0 | 0.00 | 0.86 | 0.06 | 96 | 1010.8 |
| 20260901094601 | 69 | 0 | 0.0 | 2.0 | 0.00 | 0.86 | 0.06 | 96 | 1012.5 |
| 20260901094504 | 69 | 122 | 0.0 | 2.0 | 0.00 | 0.86 | 0.06 | 96 | 1010.8 |
| 20260901094004 | 69 | 225 | 1.0 | 2.0 | 0.00 | 0.86 | 0.06 | 96 | 1010.8 |
| 20260901093504 | 69 | 16 | 0.0 | 2.0 | 0.00 | 0.86 | 0.06 | 96 | 1010.7 |
| 20260901093058 | 68 | 0 | 0.0 | 2.0 | 0.00 | 0.86 | 0.06 | 96 | 1012.5 |
| 20260901093003 | 69 | 299 | 1.0 | 2.0 | 0.00 | 0.86 | 0.06 | 96 | 1010.7 |
| 20260901092503 | 69 | 117 | 1.0 | 2.0 | 0.01 | 0.86 | 0.06 | 96 | 1010.7 |
| 20260901091605 | 69 | 0 | 1.0 | 3.0 | 0.01 | 0.86 | 0.06 | 96 | 1012.6 |
| 20260901091004 | 69 | 234 | 1.0 | 3.0 | 0.01 | 0.86 | 0.06 | 97 | 1010.8 |
| 20260901090504 | 69 | 139 | 1.0 | 2.0 | 0.01 | 0.86 | 0.06 | 96 | 1010.9 |
| 20260901090003 | 69 | 139 | 0.0 | 1.0 | 0.01 | 0.86 | 0.06 | 96 | 1011.0 |
| 20260901085503 | 69 | 17 | 0.0 | 1.0 | 0.03 | 0.86 | 0.06 | 96 | 1010.8 |
| 20260901085003 | 69 | 23 | 0.0 | 1.0 | 0.03 | 0.86 | 0.06 | 96 | 1010.9 |
| 20260901084605 | 68 | 0 | 0.0 | 1.0 | 0.03 | 0.86 | 0.06 | 96 | 1012.5 |
| 20260901084504 | 69 | 35 | 0.0 | 1.0 | 0.03 | 0.86 | 0.06 | 96 | 1010.8 |
| 20260901084004 | 69 | 6 | 0.0 | 1.0 | 0.03 | 0.86 | 0.06 | 96 | 1010.7 |
| 20260901083504 | 69 | 28 | 0.0 | 1.0 | 0.03 | 0.86 | 0.06 | 96 | 1010.6 |
| 20260901083110 | 68 | 135 | 0.0 | 3.0 | 0.03 | 0.86 | 0.06 | 96 | 1012.3 |
| 20260901082504 | 69 | 171 | 1.0 | 2.0 | 0.02 | 0.85 | 0.05 | 96 | 1010.6 |
| 20260901082004 | 69 | 153 | 1.0 | 2.0 | 0.02 | 0.85 | 0.05 | 96 | 1010.8 |
| 20260901081554 | 68 | 0 | 0.0 | 2.0 | 0.02 | 0.85 | 0.05 | 96 | 1012.4 |
| 20260901081504 | 69 | 12 | 0.0 | 1.0 | 0.02 | 0.85 | 0.05 | 97 | 1010.7 |
| 20260901081004 | 69 | 26 | 1.0 | 2.0 | 0.02 | 0.85 | 0.05 | 96 | 1010.7 |
| 20260901080503 | 69 | 340 | 1.0 | 2.0 | 0.02 | 0.85 | 0.05 | 96 | 1010.8 |
| 20260901080101 | 68 | 89 | 0.0 | 3.0 | 0.02 | 0.85 | 0.05 | 96 | 1012.7 |
| 20260901075503 | 69 | 243 | 1.0 | 2.0 | 0.00 | 0.83 | 0.03 | 96 | 1011.4 |
| 20260901075004 | 69 | 160 | 0.0 | 1.0 | 0.00 | 0.83 | 0.03 | 96 | 1011.3 |
| 20260901074602 | 68 | 0 | 0.0 | 1.0 | 0.00 | 0.83 | 0.03 | 96 | 1013.1 |
| 20260901074504 | 69 | 319 | 0.0 | 1.0 | 0.00 | 0.83 | 0.03 | 96 | 1011.4 |
| 20260901074004 | 69 | 102 | 0.0 | 1.0 | 0.00 | 0.83 | 0.03 | 96 | 1011.3 |
| 20260901073503 | 69 | 84 | 0.0 | 2.0 | 0.00 | 0.83 | 0.03 | 96 | 1011.3 |
| 20260901073228 | 68 | 0 | 1.0 | 2.0 | 0.00 | 0.83 | 0.03 | 96 | 1013.0 |
| 20260901073004 | 69 | 222 | 1.0 | 2.0 | 0.00 | 0.83 | 0.03 | 96 | 1011.3 |
| 20260901072503 | 69 | 135 | 1.0 | 1.0 | 0.00 | 0.83 | 0.03 | 96 | 1011.3 |
| 20260901072003 | 69 | 150 | 1.0 | 1.0 | 0.00 | 0.83 | 0.03 | 96 | 1011.5 |
| 20260901071554 | 68 | 0 | 1.0 | 2.0 | 0.00 | 0.83 | 0.03 | 96 | 1013.3 |
| 20260901071504 | 69 | 148 | 1.0 | 2.0 | 0.00 | 0.83 | 0.03 | 96 | 1011.6 |
| 20260901071004 | 69 | 200 | 0.0 | 1.0 | 0.00 | 0.83 | 0.03 | 96 | 1011.8 |
| 20260901070504 | 69 | 53 | 0.0 | 1.0 | 0.00 | 0.83 | 0.03 | 96 | 1011.8 |
| 20260901070057 | 68 | 0 | 0.0 | 1.0 | 0.00 | 0.83 | 0.03 | 96 | 1013.5 |
| 20260901070004 | 69 | 268 | 0.0 | 1.0 | 0.00 | 0.83 | 0.03 | 96 | 1011.8 |
| 20260901065503 | 69 | 129 | 0.0 | 1.0 | 0.01 | 0.83 | 0.03 | 96 | 1011.8 |
| 20260901065003 | 69 | 145 | 0.0 | 1.0 | 0.01 | 0.83 | 0.03 | 96 | 1012.0 |
| 20260901064552 | 68 | 0 | 0.0 | 1.0 | 0.01 | 0.83 | 0.03 | 96 | 1013.8 |
| 20260901064003 | 69 | 109 | 0.0 | 1.0 | 0.01 | 0.83 | 0.03 | 96 | 1012.3 |
| 20260901063503 | 69 | 70 | 0.0 | 1.0 | 0.01 | 0.83 | 0.03 | 96 | 1012.3 |
| 20260901063109 | 68 | 0 | 0.0 | 1.0 | 0.01 | 0.83 | 0.03 | 96 | 1014.0 |
| 20260901063004 | 69 | 89 | 0.0 | 1.0 | 0.01 | 0.83 | 0.03 | 96 | 1012.3 |
| 20260901062504 | 69 | 27 | 0.0 | 1.0 | 0.03 | 0.83 | 0.03 | 96 | 1012.3 |
| 20260901062004 | 69 | 102 | 0.0 | 1.0 | 0.03 | 0.83 | 0.03 | 96 | 1012.3 |
| 20260901061602 | 68 | 0 | 0.0 | 2.0 | 0.03 | 0.83 | 0.03 | 96 | 1014.0 |
| 20260901061504 | 69 | 135 | 0.0 | 1.0 | 0.03 | 0.83 | 0.03 | 96 | 1012.5 |
| 20260901061004 | 69 | 102 | 1.0 | 2.0 | 0.03 | 0.83 | 0.03 | 96 | 1012.4 |
| 20260901060503 | 69 | 16 | 0.0 | 1.0 | 0.03 | 0.83 | 0.03 | 96 | 1012.5 |
| 20260901060059 | 68 | 0 | 0.0 | 1.0 | 0.03 | 0.83 | 0.03 | 96 | 1014.0 |
| 20260901060003 | 69 | 154 | 0.0 | 1.0 | 0.03 | 0.83 | 0.03 | 96 | 1012.4 |
| 20260901055504 | 69 | 157 | 0.0 | 1.0 | 0.02 | 0.82 | 0.02 | 96 | 1012.6 |
| 20260901055004 | 69 | 1 | 0.0 | 2.0 | 0.02 | 0.82 | 0.02 | 96 | 1012.6 |
| 20260901054553 | 68 | 0 | 0.0 | 1.0 | 0.02 | 0.82 | 0.02 | 96 | 1014.1 |
| 20260901054504 | 69 | 29 | 0.0 | 1.0 | 0.02 | 0.82 | 0.02 | 96 | 1012.6 |
| 20260901054004 | 69 | 143 | 0.0 | 1.0 | 0.02 | 0.82 | 0.02 | 96 | 1012.9 |
| 20260901053503 | 69 | 171 | 0.0 | 2.0 | 0.02 | 0.82 | 0.02 | 96 | 1012.9 |
| 20260901053056 | 68 | 161 | 0.0 | 2.0 | 0.02 | 0.82 | 0.02 | 96 | 1014.5 |
| 20260901053003 | 68 | 142 | 0.0 | 1.0 | 0.02 | 0.82 | 0.02 | 96 | 1013.0 |
| 20260901052503 | 68 | 61 | 0.0 | 1.0 | 0.00 | 0.80 | 0.00 | 96 | 1013.1 |
| 20260901052004 | 69 | 81 | 1.0 | 1.0 | 0.00 | 0.80 | 0.00 | 96 | 1013.1 |
| 20260901051616 | 68 | 0 | 0.0 | 1.0 | 0.00 | 0.80 | 0.00 | 96 | 1014.8 |
| 20260901050504 | 68 | 85 | 0.0 | 0.0 | 0.00 | 0.80 | 0.00 | 96 | 1013.1 |
| 20260901050055 | 68 | 0 | 0.0 | 2.0 | 0.00 | 0.80 | 0.00 | 96 | 1014.8 |
| 20260901045004 | 69 | 111 | 0.0 | 1.0 | 0.00 | 0.80 | 0.00 | 96 | 1013.1 |
| 20260901044602 | 68 | 0 | 0.0 | 1.0 | 0.00 | 0.80 | 0.00 | 96 | 1014.7 |
| 20260901044004 | 69 | 52 | 0.0 | 1.0 | 0.00 | 0.80 | 0.00 | 96 | 1013.1 |
| 20260901043503 | 69 | 31 | 0.0 | 1.0 | 0.00 | 0.80 | 0.00 | 96 | 1013.1 |
| 20260901043055 | 68 | 0 | 0.0 | 1.0 | 0.00 | 0.80 | 0.00 | 95 | 1014.7 |
| 20260901042004 | 69 | 130 | 0.0 | 2.0 | 0.00 | 0.80 | 0.00 | 96 | 1013.1 |
| 20260901041559 | 68 | 240 | 0.0 | 2.0 | 0.00 | 0.80 | 0.00 | 96 | 1014.6 |
| 20260901041504 | 69 | 237 | 0.0 | 1.0 | 0.00 | 0.80 | 0.00 | 96 | 1013.0 |
| 20260901041007 | 69 | 215 | 2.0 | 2.0 | 0.00 | 0.80 | 0.00 | 96 | 1013.0 |
| 20260901040504 | 69 | 160 | 0.0 | 1.0 | 0.00 | 0.80 | 0.00 | 96 | 1013.0 |
| 20260901040059 | 69 | 0 | 0.0 | 1.0 | 0.00 | 0.80 | 0.00 | 95 | 1014.7 |
| 20260901040003 | 69 | 83 | 0.0 | 1.0 | 0.00 | 0.80 | 0.00 | 96 | 1013.1 |
| 20260901035504 | 69 | 65 | 0.0 | 1.0 | 0.00 | 0.80 | 0.80 | 96 | 1013.1 |
| 20260901035004 | 69 | 105 | 0.0 | 1.0 | 0.00 | 0.80 | 0.80 | 96 | 1013.2 |
| 20260901034604 | 69 | 0 | 0.0 | 1.0 | 0.00 | 0.80 | 0.80 | 96 | 1015.1 |
| 20260901034504 | 69 | 112 | 0.0 | 1.0 | 0.00 | 0.80 | 0.80 | 96 | 1013.3 |
| 20260901034004 | 69 | 100 | 0.0 | 1.0 | 0.00 | 0.80 | 0.80 | 96 | 1013.4 |
| 20260901033503 | 69 | 80 | 0.0 | 0.0 | 0.00 | 0.80 | 0.80 | 96 | 1013.4 |
| 20260901033114 | 69 | 0 | 0.0 | 0.0 | 0.00 | 0.80 | 0.80 | 96 | 1015.0 |
| 20260901032503 | 69 | 105 | 0.0 | 0.0 | 0.00 | 0.80 | 0.80 | 96 | 1013.5 |
| 20260901032004 | 69 | 62 | 0.0 | 1.0 | 0.00 | 0.80 | 0.80 | 96 | 1013.6 |
| 20260901031555 | 69 | 0 | 0.0 | 1.0 | 0.00 | 0.80 | 0.80 | 96 | 1015.3 |
| 20260901031504 | 69 | 9 | 0.0 | 1.0 | 0.00 | 0.80 | 0.80 | 96 | 1013.5 |
| 20260901030103 | 69 | 0 | 0.0 | 1.0 | 0.00 | 0.80 | 0.80 | 95 | 1015.4 |
| 20260901025003 | 69 | 178 | 0.0 | 1.0 | 0.00 | 0.80 | 0.80 | 96 | 1013.8 |
| 20260901024558 | 69 | 0 | 0.0 | 1.0 | 0.00 | 0.80 | 0.80 | 95 | 1015.4 |
| 20260901024503 | 69 | 92 | 0.0 | 0.0 | 0.00 | 0.80 | 0.80 | 96 | 1013.9 |
| 20260901024004 | 69 | 73 | 0.0 | 0.0 | 0.00 | 0.80 | 0.80 | 96 | 1014.0 |
| 20260901023504 | 69 | 96 | 0.0 | 1.0 | 0.00 | 0.80 | 0.80 | 96 | 1014.1 |
| 20260901023056 | 69 | 0 | 0.0 | 1.0 | 0.00 | 0.80 | 0.80 | 95 | 1015.6 |
| 20260901023004 | 70 | 250 | 0.0 | 1.0 | 0.00 | 0.80 | 0.80 | 96 | 1014.1 |
| 20260901022003 | 70 | 83 | 0.0 | 0.0 | 0.00 | 0.80 | 0.80 | 96 | 1014.0 |
| 20260901021552 | 69 | 0 | 0.0 | 0.0 | 0.00 | 0.80 | 0.80 | 95 | 1015.6 |
| 20260901021503 | 70 | 82 | 0.0 | 0.0 | 0.00 | 0.80 | 0.80 | 96 | 1014.0 |
| 20260901020051 | 69 | 0 | 0.0 | 1.0 | 0.00 | 0.80 | 0.80 | 96 | 1015.6 |
| 20260901020004 | 70 | 99 | 0.0 | 1.0 | 0.00 | 0.80 | 0.80 | 96 | 1014.1 |
| 20260901015004 | 70 | 130 | 0.0 | 0.0 | 0.00 | 0.80 | 0.80 | 96 | 1014.0 |
| 20260901014609 | 69 | 0 | 0.0 | 1.0 | 0.00 | 0.80 | 0.80 | 96 | 1015.7 |
| 20260901014504 | 70 | 97 | 0.0 | 1.0 | 0.00 | 0.80 | 0.80 | 96 | 1014.1 |
| 20260901014003 | 70 | 226 | 0.0 | 1.0 | 0.00 | 0.80 | 0.80 | 96 | 1014.1 |
| 20260901013503 | 70 | 153 | 0.0 | 0.0 | 0.00 | 0.80 | 0.80 | 96 | 1014.1 |
| 20260901013058 | 69 | 0 | 0.0 | 1.0 | 0.00 | 0.80 | 0.80 | 95 | 1015.8 |
| 20260901013004 | 70 | 91 | 0.0 | 0.0 | 0.00 | 0.80 | 0.80 | 96 | 1014.1 |
| 20260901012004 | 70 | 300 | 0.0 | 1.0 | 0.00 | 0.80 | 0.80 | 96 | 1014.1 |
| 20260901011552 | 69 | 0 | 0.0 | 1.0 | 0.00 | 0.80 | 0.80 | 95 | 1015.7 |
| 20260901011504 | 70 | 296 | 0.0 | 1.0 | 0.00 | 0.80 | 0.80 | 96 | 1014.0 |
| 20260901011004 | 69 | 311 | 0.0 | 1.0 | 0.00 | 0.80 | 0.80 | 96 | 1013.8 |
| 20260901010503 | 69 | 62 | 0.0 | 0.0 | 0.00 | 0.80 | 0.80 | 96 | 1013.7 |
| 20260901010059 | 69 | 0 | 0.0 | 1.0 | 0.00 | 0.80 | 0.80 | 95 | 1015.4 |
| 20260901010003 | 69 | 83 | 0.0 | 1.0 | 0.00 | 0.80 | 0.80 | 96 | 1013.7 |